KC0CAU Weather Reports


Display with metric or nautical units.
time (UTC)temp
F
wind
direction
speed
MPH
gust
MPH
rain 1hr
in
rain 24hr
in
rain mn
in
humidity
%
barometer
mb
20260906210009 78 126 4.0 9.0 0.00 0.60 0.60 77 1012.0
20260906204511 78 162 5.0 9.0 0.00 0.60 0.60 79 1012.3
20260906203007 76 74 0.0 3.0 0.00 0.60 0.60 84 1012.4
20260906201506 73 111 1.0 5.0 0.00 0.60 0.60 88 1012.9
20260906200006 72 221 2.0 8.0 0.00 0.60 0.60 90 1013.0
20260906194508 71 209 2.0 8.0 0.00 0.60 0.60 90 1013.8
20260906193004 70 176 4.0 8.0 0.00 0.60 0.60 91 1014.1
20260906191509 69 153 4.0 14.0 0.01 0.60 0.60 92 1014.9
20260906190003 71 169 4.0 9.0 0.35 0.60 0.60 96 1013.9
20260906184502 71 9 0.0 6.0 0.56 0.60 0.60 96 1013.0
20260906183002 71 31 0.0 4.0 0.60 0.60 0.60 95 1012.4
20260906181513 71 112 2.0 14.0 0.59 0.59 0.59 94 1013.9
20260906174558 75 325 3.0 13.0 0.03 0.03 0.03 86 1013.2
20260906173056 77 12 6.0 15.0 0.00 0.00 0.00 79 1013.1
20260906171607 85 346 0.0 1.0 0.00 0.00 0.00 71 1012.8
20260906170106 87 355 0.0 3.0 0.00 0.00 0.00 68 1012.9
20260906164550 86 104 0.0 4.0 0.00 0.00 0.00 69 1012.7
20260906163047 85 75 1.0 5.0 0.00 0.00 0.00 72 1012.5
20260906161545 84 148 2.0 6.0 0.00 0.00 0.00 73 1012.1
20260906160042 83 92 2.0 6.0 0.00 0.00 0.00 75 1011.7
20260906154542 81 100 2.0 5.0 0.00 0.00 0.00 78 1011.6
20260906153035 80 136 1.0 4.0 0.00 0.00 0.00 80 1011.7
20260906151530 79 15 1.0 6.0 0.00 0.00 0.00 82 1011.8
20260906150027 77 61 1.0 3.0 0.00 0.00 0.00 83 1011.9
20260906144524 76 91 0.0 4.0 0.00 0.00 0.00 86 1012.0
20260906143020 74 355 0.0 2.0 0.00 0.00 0.00 90 1012.2
20260906141519 74 310 0.0 2.0 0.00 0.00 0.00 90 1012.5
20260906140012 73 60 1.0 4.0 0.00 0.00 0.00 90 1012.3
20260906134507 71 333 1.0 7.0 0.00 0.00 0.00 93 1012.2
20260906133006 70 96 3.0 6.0 0.00 0.00 0.00 94 1011.9
20260906131509 69 360 0.0 0.0 0.00 0.00 0.00 95 1011.9
20260906130004 68 355 0.0 3.0 0.00 0.00 0.00 95 1011.9
20260906124504 68 106 2.0 6.0 0.00 0.00 0.00 95 1012.0
20260906123002 67 100 3.0 8.0 0.00 0.00 0.00 95 1011.9
20260906121502 67 108 0.0 0.0 0.00 0.00 0.00 95 1012.6
20260906120001 67 74 0.0 0.0 0.00 0.00 0.00 95 1012.4
20260906114602 67 87 0.0 2.0 0.00 0.00 0.00 95 1012.0
20260906113100 67 72 1.0 3.0 0.00 0.00 0.00 95 1012.0
20260906111601 66 81 0.0 0.0 0.00 0.00 0.00 95 1012.1
20260906110058 67 103 0.0 0.0 0.00 0.00 0.00 95 1012.2
20260906104603 66 88 0.0 0.0 0.00 0.00 0.00 95 1012.1
20260906103058 66 90 0.0 3.0 0.00 0.00 0.00 95 1012.2
20260906101556 67 84 0.0 4.0 0.00 0.00 0.00 95 1012.2
20260906100055 67 69 0.0 3.0 0.00 0.00 0.00 95 1012.4
20260906094608 67 96 3.0 6.0 0.00 0.00 0.00 95 1012.3
20260906093127 67 67 1.0 6.0 0.00 0.00 0.00 94 1012.3
20260906091655 67 62 0.0 4.0 0.00 0.00 0.00 94 1012.4
20260906090053 67 132 2.0 4.0 0.00 0.00 0.00 95 1012.3
20260906084551 67 95 1.0 3.0 0.00 0.00 0.00 95 1012.2
20260906083050 67 63 0.0 8.0 0.00 0.00 0.00 94 1012.2
20260906081548 67 40 2.0 7.0 0.00 0.00 0.00 94 1012.2
20260906080046 67 74 2.0 8.0 0.00 0.00 0.00 94 1012.0
20260906074545 67 79 3.0 10.0 0.00 0.00 0.00 94 1012.0
20260906073044 67 118 3.0 6.0 0.00 0.00 0.00 93 1012.1
20260906071541 68 81 3.0 6.0 0.00 0.00 0.00 93 1011.9
20260906070039 68 108 2.0 8.0 0.00 0.00 0.00 93 1012.3
20260906064537 69 98 3.0 9.0 0.00 0.00 0.00 92 1012.3
20260906063039 69 120 4.0 9.0 0.00 0.00 0.00 92 1012.5
20260906061533 69 57 2.0 8.0 0.00 0.00 0.00 92 1012.1
20260906060032 69 139 2.0 7.0 0.00 0.00 0.00 92 1012.4
20260906054532 69 153 1.0 6.0 0.00 0.00 0.00 91 1012.3
20260906053027 69 94 3.0 7.0 0.00 0.00 0.00 91 1012.3
20260906051526 69 97 3.0 8.0 0.00 0.00 0.00 90 1012.2
20260906050025 70 84 2.0 6.0 0.00 0.00 0.00 90 1012.0
20260906044522 70 152 3.0 8.0 0.00 0.00 0.00 89 1012.3
20260906043022 70 115 3.0 8.0 0.00 0.00 0.00 89 1012.1
20260906041522 71 65 3.0 9.0 0.00 0.00 0.00 87 1011.9
20260906040028 72 113 3.0 10.0 0.00 0.00 0.00 86 1012.0
20260906034521 72 76 4.0 10.0 0.00 0.00 0.00 86 1012.0
20260906033030 72 78 3.0 12.0 0.00 0.00 0.00 86 1011.8
20260906031520 73 51 5.0 12.0 0.00 0.00 0.00 85 1011.5
20260906030020 73 80 2.0 9.0 0.00 0.00 0.00 85 1011.5
20260906024535 73 44 3.0 6.0 0.00 0.00 0.00 84 1011.4
20260906023023 74 115 3.0 6.0 0.00 0.00 0.00 82 1011.3
20260906021519 75 80 0.0 6.0 0.00 0.00 0.00 77 1011.0
20260906020018 76 123 3.0 7.0 0.00 0.00 0.00 76 1010.6
20260906014525 77 83 4.0 8.0 0.00 0.00 0.00 75 1010.7
20260906013036 78 128 3.0 8.0 0.00 0.00 0.00 73 1010.4
20260906011517 79 112 3.0 7.0 0.00 0.00 0.00 70 1010.5
20260906010022 81 133 3.0 9.0 0.00 0.00 0.00 65 1010.3
20260906004516 82 121 5.0 9.0 0.00 0.00 0.00 62 1010.2
20260906003016 82 156 3.0 11.0 0.00 0.00 0.00 65 1010.4
20260906001518 83 168 6.0 12.0 0.00 0.00 0.00 68 1010.7
20260906000015 83 203 5.0 15.0 0.00 0.00 0.00 69 1011.0
20260905234515 83 158 11.0 20.0 0.00 0.00 0.00 70 1011.2
20260905233013 84 108 11.0 19.0 0.00 0.00 0.00 68 1011.0
20260905231513 87 122 12.0 19.0 0.00 0.00 0.00 63 1010.6
20260905230013 89 153 10.0 16.0 0.00 0.00 0.00 52 1010.2
20260905224512 90 138 10.0 17.0 0.00 0.00 0.00 51 1010.1
20260905223011 91 157 10.0 17.0 0.00 0.00 0.00 50 1009.4
20260905221510 92 131 10.0 17.0 0.00 0.00 0.00 49 1009.0
20260905220009 92 106 7.0 15.0 0.00 0.00 0.00 49 1009.2
20260905214507 93 122 8.0 15.0 0.00 0.00 0.00 48 1009.5
20260905213005 93 142 6.0 13.0 0.00 0.00 0.00 47 1009.7
20260905211502 93 148 7.0 19.0 0.00 0.00 0.00 43 1009.8